This is the latest recevied weather packets stored in our database for station/object HG2HNB-13. If no packets are shown the sender has not sent any weather packets the latest 10 day(s).
| Time | Temp. | Humidity | Pressure | Rain* | Wind** | Luminosity | Snow |
|---|---|---|---|---|---|---|---|
| 1778188614 | 14.44° C | 71% | 1014.9 hPa | 0 mm | - | - | - |
| 1778187394 | 14.44° C | 71% | 1014.8 hPa | 0 mm | - | - | - |
| 1778184370 | 14.44° C | 69% | 1014.8 hPa | 0 mm | - | - | - |
| 1778183170 | 14.44° C | 67% | 1014.3 hPa | 0 mm | - | - | - |
| 1778179610 | 15° C | 64% | 1013.8 hPa | 0 mm | - | - | - |
| 1778175990 | 16.11° C | 55% | 1013.8 hPa | 0 mm | - | - | - |
| 1778175394 | 16.67° C | 54% | 1013.4 hPa | 0 mm | - | - | - |
| 1778174194 | 17.78° C | 50% | 1013.6 hPa | 0 mm | - | - | - |
| 1778173074 | 17.78° C | 50% | 1013.1 hPa | 0 mm | - | - | - |
| 1778171794 | 17.78° C | 51% | 1013 hPa | 0 mm | - | - | - |
| 1778171170 | 18.33° C | 51% | 1013 hPa | 0 mm | - | - | - |
| 1778170634 | 18.33° C | 53% | 1013 hPa | 0 mm | - | - | - |
| 1778165190 | 17.22° C | 53% | 1013.4 hPa | 0 mm | - | - | - |
| 1778162770 | 17.22° C | 54% | 1013.7 hPa | 0 mm | - | - | - |
| 1778161590 | 17.78° C | 50% | 1013.5 hPa | 0 mm | - | - | - |
| 1778161014 | 18.33° C | 52% | 1013.5 hPa | 0 mm | - | - | - |
| 1778159794 | 17.78° C | 50% | 1013.5 hPa | 0 mm | - | - | - |
| 1778159170 | 17.78° C | 50% | 1013.8 hPa | 0 mm | - | - | - |
| 1778157434 | 17.78° C | 50% | 1013.9 hPa | 0 mm | - | - | - |
| 1778154994 | 16.67° C | 53% | 1013.9 hPa | 0 mm | - | - | - |
| 1778152634 | 17.22° C | 58% | 1013.9 hPa | 0 mm | - | - | - |
| 1778147814 | 17.78° C | 50% | 1014.2 hPa | 0 mm | - | - | - |
| 1778146614 | 17.78° C | 48% | 1014.1 hPa | 0 mm | - | - | - |
| 1778144194 | 18.33° C | 46% | 1013.7 hPa | 0 mm | - | - | - |
| 1778142370 | 17.78° C | 46% | 1013.2 hPa | 0 mm | - | - | - |
* Rain latest hour (hover to see other rain measurements)
** Current wind speed in m/s (hover to see current wind gust speed)